Time,TemperatureF,DewpointF,PressureIn,WindDirection,WindDirectionDegrees,WindSpeedMPH,WindSpeedGustMPH,Humidity,HourlyPrecipIn,Conditions,Clouds,dailyrainin,SoftwareType,DateUTC
2013-07-06 00:34:00,71.0,68.0,-100.00,West,270,2.0,2.0,89,-99.99,,,-99.99,,2013-07-06 05:34:00,
2013-07-06 00:43:00,71.0,68.0,-100.00,West,270,2.0,2.0,89,-99.99,,,-99.99,,2013-07-06 05:43:00,
2013-07-06 00:53:00,71.0,68.0,-100.00,West,270,2.0,2.0,89,-99.99,,,-99.99,,2013-07-06 05:53:00,
2013-07-06 01:02:00,71.0,68.0,-100.00,West,270,2.0,2.0,89,-99.99,,,-99.99,,2013-07-06 06:02:00,
2013-07-06 01:43:00,74.0,64.0,-100.00,West,270,6.0,8.0,70,-99.99,,,-99.99,,2013-07-06 06:43:00,
2013-07-06 01:53:00,74.0,64.0,-100.00,West,270,6.0,8.0,70,-99.99,,,-99.99,,2013-07-06 06:53:00,
2013-07-06 02:02:00,74.0,64.0,-100.00,West,270,6.0,8.0,70,-99.99,,,-99.99,,2013-07-06 07:02:00,
2013-07-06 04:34:00,68.0,67.0,-100.00,NW,305,3.0,4.0,99,-99.99,,,-99.99,,2013-07-06 09:34:00,
2013-07-06 04:43:00,68.0,67.0,-100.00,NW,305,3.0,4.0,99,-99.99,,,-99.99,,2013-07-06 09:43:00,
2013-07-06 04:53:00,68.0,67.0,-100.00,NW,305,3.0,4.0,99,-99.99,,,-99.99,,2013-07-06 09:53:00,
2013-07-06 05:02:00,68.0,67.0,-100.00,NW,305,3.0,4.0,99,-99.99,,,-99.99,,2013-07-06 10:02:00,
2013-07-06 05:33:00,67.0,67.0,-100.00,NE,50,3.0,3.0,99,-99.99,,,-99.99,,2013-07-06 10:33:00,
2013-07-06 05:43:00,67.0,67.0,-100.00,NE,50,3.0,3.0,99,-99.99,,,-99.99,,2013-07-06 10:43:00,
2013-07-06 05:53:00,67.0,67.0,-100.00,NE,50,3.0,3.0,99,-99.99,,,-99.99,,2013-07-06 10:53:00,
2013-07-06 06:01:00,67.0,67.0,-100.00,NE,50,3.0,3.0,99,-99.99,,,-99.99,,2013-07-06 11:01:00,
2013-07-06 06:43:00,66.0,65.0,-100.00,West,270,2.0,3.0,99,-99.99,,,-99.99,,2013-07-06 11:43:00,
2013-07-06 06:53:00,66.0,65.0,-100.00,West,270,2.0,3.0,99,-99.99,,,-99.99,,2013-07-06 11:53:00,
2013-07-06 07:01:00,66.0,65.0,-100.00,West,270,2.0,3.0,99,-99.99,,,-99.99,,2013-07-06 12:01:00,
2013-07-06 07:43:00,66.0,66.0,-100.00,NNE,20,4.0,5.0,99,-99.99,,,-99.99,,2013-07-06 12:43:00,
2013-07-06 07:52:00,66.0,66.0,-100.00,NNE,20,4.0,5.0,99,-99.99,,,-99.99,,2013-07-06 12:52:00,
2013-07-06 08:01:00,66.0,66.0,-100.00,NNE,20,4.0,5.0,99,-99.99,,,-99.99,,2013-07-06 13:01:00,
2013-07-06 08:43:00,67.0,67.0,-100.00,NE,35,9.0,10.0,99,-99.99,,,-99.99,,2013-07-06 13:43:00,
2013-07-06 08:52:00,67.0,67.0,-100.00,NE,35,9.0,10.0,99,-99.99,,,-99.99,,2013-07-06 13:52:00,
2013-07-06 09:02:00,67.0,67.0,-100.00,NE,35,9.0,10.0,99,-99.99,,,-99.99,,2013-07-06 14:02:00,
2013-07-06 09:42:00,69.0,68.0,-100.00,NE,45,9.0,10.0,99,-99.99,,,-99.99,,2013-07-06 14:42:00,
2013-07-06 09:53:00,69.0,68.0,-100.00,NE,45,9.0,10.0,99,-99.99,,,-99.99,,2013-07-06 14:53:00,
2013-07-06 10:02:00,69.0,68.0,-100.00,NE,45,9.0,10.0,99,-99.99,,,-99.99,,2013-07-06 15:02:00,
2013-07-06 12:08:00,73.0,73.0,-100.00,East,80,7.0,9.0,99,-99.99,,,-99.99,,2013-07-06 17:08:00,
2013-07-06 12:58:00,77.0,74.0,-100.00,ESE,110,10.0,11.0,90,-99.99,,,-99.99,,2013-07-06 17:58:00,
2013-07-06 13:06:00,77.0,74.0,-100.00,ESE,110,10.0,11.0,90,-99.99,,,-99.99,,2013-07-06 18:06:00,
2013-07-06 13:09:00,77.0,74.0,-100.00,ESE,105,6.0,7.0,88,-99.99,,,-99.99,,2013-07-06 18:09:00,
2013-07-06 14:00:00,77.0,74.0,-100.00,ESE,105,6.0,7.0,88,-99.99,,,-99.99,,2013-07-06 19:00:00,
2013-07-06 14:08:00,77.0,74.0,-100.00,ESE,105,6.0,7.0,88,-99.99,,,-99.99,,2013-07-06 19:08:00,
2013-07-06 14:09:00,81.0,74.0,-100.00,NE,55,2.0,3.0,80,-99.99,,,-99.99,,2013-07-06 19:09:00,
2013-07-06 16:00:00,83.0,74.0,-100.00,East,85,3.0,4.0,75,-99.99,,,-99.99,,2013-07-06 21:00:00,
2013-07-06 16:09:00,82.0,73.0,-100.00,NNE,20,6.0,7.0,74,-99.99,,,-99.99,,2013-07-06 21:09:00,
2013-07-06 17:00:00,82.0,73.0,-100.00,NNE,20,6.0,7.0,74,-99.99,,,-99.99,,2013-07-06 22:00:00,
2013-07-06 17:09:00,84.0,72.0,-100.00,NNE,30,6.0,7.0,68,-99.99,,,-99.99,,2013-07-06 22:09:00,
2013-07-06 17:59:00,84.0,72.0,-100.00,NNE,30,6.0,7.0,68,-99.99,,,-99.99,,2013-07-06 22:59:00,
2013-07-06 18:58:00,79.0,73.0,-100.00,SSE,155,16.0,19.0,83,-99.99,,,-99.99,,2013-07-06 23:58:00,
2013-07-06 19:10:00,77.0,72.0,-100.00,South,190,19.0,22.0,85,-99.99,,,-99.99,,2013-07-07 00:10:00,
2013-07-06 19:59:00,77.0,72.0,-100.00,South,190,19.0,22.0,85,-99.99,,,-99.99,,2013-07-07 00:59:00,
2013-07-06 20:07:00,77.0,72.0,-100.00,South,190,19.0,22.0,85,-99.99,,,-99.99,,2013-07-07 01:07:00,
2013-07-06 20:09:00,77.0,73.0,-100.00,SSE,165,9.0,9.0,87,-99.99,,,-99.99,,2013-07-07 01:09:00,
2013-07-06 21:43:00,75.0,74.0,-100.00,SSE,155,7.0,8.0,99,-99.99,,,-99.99,,2013-07-07 02:43:00,
2013-07-06 22:01:00,75.0,74.0,-100.00,SSE,155,7.0,8.0,99,-99.99,,,-99.99,,2013-07-07 03:01:00,
2013-07-06 22:43:00,73.0,72.0,-100.00,ESE,110,3.0,4.0,99,-99.99,,,-99.99,,2013-07-07 03:43:00,
2013-07-06 23:01:00,73.0,72.0,-100.00,ESE,110,3.0,4.0,99,-99.99,,,-99.99,,2013-07-07 04:01:00,
2013-07-06 23:10:00,71.0,71.0,-100.00,SE,125,4.0,5.0,99,-99.99,,,-99.99,,2013-07-07 04:10:00,
2013-07-06 23:31:00,71.0,71.0,-100.00,SE,125,4.0,5.0,99,-99.99,,,-99.99,,2013-07-07 04:31:00,
2013-07-06 23:41:00,71.0,71.0,-100.00,SE,125,4.0,5.0,99,-99.99,,,-99.99,,2013-07-07 04:41:00,
2013-07-06 23:51:00,71.0,71.0,-100.00,SE,125,4.0,5.0,99,-99.99,,,-99.99,,2013-07-07 04:51:00,